PST,Max TemperatureF,Mean TemperatureF,Min TemperatureF,Max Dew PointF,MeanDew PointF,Min DewpointF,Max Humidity, Mean Humidity, Min Humidity, Max Sea Level PressureIn, Mean Sea Level PressureIn, Min Sea Level PressureIn, Max VisibilityMiles, Mean VisibilityMiles, Min VisibilityMiles, Max Wind SpeedMPH, Mean Wind SpeedMPH, Max Gust SpeedMPH,PrecipitationIn, CloudCover, Events, WindDirDegrees
2013-2-1,75,60,46,44,40,34,73,44,22,30.19,30.15,30.10,10,10,10,5,1,,0.00,0,,351
2013-2-2,79,64,48,47,40,31,74,44,18,30.23,30.15,30.10,10,10,10,6,2,,0.00,1,,295
2013-2-3,77,67,55,52,45,41,75,50,28,30.08,30.02,29.95,10,10,10,10,4,,0.00,3,Rain,314
2013-2-4,79,65,51,48,41,34,77,48,20,30.04,29.97,29.91,10,10,10,8,4,,0.00,0,,261
2013-2-5,79,64,48,45,40,34,69,45,20,30.00,29.92,29.85,10,10,10,9,5,,0.00,0,,211
2013-2-6,77,64,48,52,41,30,69,47,19,30.01,29.92,29.85,10,10,10,8,4,,0.00,0,,260
2013-2-7,75,60,46,43,39,37,68,48,26,30.07,29.97,29.85,10,10,8,22,4,32,0.00,0,,176
2013-2-8,63,54,45,38,35,30,65,46,30,29.94,29.88,29.84,10,9,2,37,23,48,0.00,3,,255
2013-2-9,63,51,39,35,32,28,73,51,28,30.06,29.97,29.88,10,10,10,21,9,29,0.00,0,,270
2013-2-10,62,50,39,35,32,29,73,51,29,30.06,30.01,29.95,10,10,10,13,8,,0.00,0,,264
2013-2-11,63,51,39,36,27,17,73,46,18,30.22,30.10,30.01,10,10,10,15,7,28,0.00,1,,312
2013-2-12,64,50,35,29,18,9,52,33,12,30.34,30.26,30.22,10,10,10,8,5,,0.00,0,,287
2013-2-13,71,54,37,32,22,16,50,33,12,30.25,30.17,30.09,10,10,10,7,5,,0.00,0,,259
2013-2-14,77,59,41,34,28,24,57,35,15,30.20,30.11,30.04,10,10,10,9,4,,0.00,0,,297
2013-2-15,75,62,48,37,27,17,54,31,11,30.25,30.19,30.13,10,10,10,14,6,20,0.00,0,,321
2013-2-16,77,60,44,32,22,14,45,27,9,30.22,30.09,29.94,10,10,10,8,5,,0.00,0,,274
2013-2-17,81,62,44,33,23,16,40,25,9,29.93,29.87,29.80,10,10,10,21,8,18,0.00,0,,262
2013-2-18,75,60,44,41,32,24,68,39,15,30.00,29.91,29.84,10,10,9,10,4,,0.00,0,,196
2013-2-19,64,55,46,39,36,33,61,48,34,29.86,29.78,29.69,10,10,10,31,13,38,0.00,0,,265
2013-2-20,61,52,44,42,33,27,82,50,29,29.93,29.78,29.67,10,10,10,20,14,25,0.01,2,,261
2013-2-21,63,51,39,37,32,28,71,51,29,30.07,29.98,29.93,10,10,10,13,6,,0.00,2,,269
2013-2-22,66,51,36,35,26,15,83,45,14,30.19,30.12,30.07,10,10,10,10,4,,0.00,0,,270
2013-2-23,73,56,39,38,28,23,60,35,16,30.12,29.95,29.76,10,10,10,12,4,16,0.00,0,,248
2013-2-24,66,55,41,25,15,3,43,23,8,30.18,30.10,29.95,10,10,10,21,11,26,0.00,0,,329
2013-2-25,69,52,36,23,17,11,46,26,11,30.24,30.13,30.01,10,10,10,9,4,,0.00,0,,239
2013-2-26,73,55,37,28,20,10,70,29,9,30.16,30.04,29.98,10,10,10,12,3,,0.00,0,,31
2013-2-27,70,54,37,29,18,7,53,28,9,30.29,30.23,30.17,10,10,10,10,6,17,0.00,0,,303
2013-2-28,75,58,41,25,17,9,41,24,9,30.35,30.29,30.24,10,10,10,9,6,,0.00,0,,261